RH
61 57 66 65 63 74 68 55 48 26 46 28 35 64 54 32 34 38 33 35 38 43 41 40 40 38 37 38 38 34 31 31 34 34 35 34 34 34 33 34 34 36 36 38
63 62 68 69 63 73 69 62 60 51 56 40 33 32 38 36 39 40 36 40 46 44 43 42 41 40 38 36 34 36 40 40 41 42 42 42 42 40 38 36 35 36 38 42
54 73 68 64 66 64 62 69 59 59 40 38 41 43 39 36 38 40 40 47 46 45 44 40 35 30 28 35 42 43 44 45 48 48 46 45 44 43 42 42 43 44 43 43
83 68 78 43 52 51 57 54 60 49 48 42 41 38 40 38 38 45 49 48 46 41 37 36 32 32 37 43 45 46 47 48 49 47 46 47 47 48 48 47 49 49 49 51
85 87 67 47 46 51 56 48 50 56 55 48 44 46 44 42 48 50 50 47 44 43 41 38 42 44 44 45 47 46 46 47 47 48 48 49 50 50 52 52 54 55 53 51
90 97 85 50 38 40 40 64 44 51 49 48 50 60 58 50 52 50 50 49 48 44 40 41 47 48 47 46 46 48 49 50 50 50 49 49 49 48 49 53 55 55 50 48
85 93 82 60 48 42 60 53 45 47 49 51 59 53 52 51 51 52 52 52 51 50 47 53 53 50 52 55 52 49 49 50 51 50 47 46 45 45 45 46 48 50 49 48
81 92 91 53 51 57 51 46 48 54 57 56 56 55 54 53 54 55 55 54 53 54 55 57 55 57 57 57 55 49 47 47 49 52 50 49 48 47 50 50 46 47 45 44
80 73 54 53 49 44 46 47 52 57 59 64 62 59 59 60 61 60 59 57 61 58 48 43 45 45 43 41 40 37 34 39 47 50 65 72 70 68 65 67 67 67 69 64
69 56 58 51 47 47 49 52 56 62 76 74 71 63 63 63 62 60 58 64 57 55 54 53 49 42 41 40 41 42 38 36 46 51 65 72 74 76 77 74 73 77 77 74
79 64 51 48 53 56 54 61 66 69 73 78 78 72 65 66 67 62 66 62 59 55 49 45 44 44 42 37 33 30 32 31 31 46 60 70 75 79 84 84 79 90 87 86
70 56 63 66 73 75 78 85 86 81 84 88 95 71 75 71 65 66 64 60 50 42 42 37 36 33 31 32 30 29 27 23 21 24 35 55 65 67 79 74 74 80 99 94
74 74 74 83 81 80 83 90 83 83 89 95 96 85 68 69 68 69 62 50 40 33 28 28 29 24 24 29 26 24 23 22 26 24 24 40 58 65 63 52 65 64 75 88
75 76 79 80 84 86 94 95 96 92 88 88 89 91 92 80 63 48 39 38 36 31 26 25 24 21 22 26 25 22 21 21 25 28 29 29 35 46 64 76 65 43 54 79
81 76 84 96 98 87 60 53 50 54 60 60 59 54 47 44 40 36 33 33 32 29 24 24 22 17 18 20 21 22 21 22 24 27 29 34 34 33 36 42 53 51 45 54
94 83 70 56 49 49 51 48 51 50 45 38 37 37 35 33 31 30 29 28 34 32 28 31 29 24 25 23 20 19 21 25 28 28 28 30 33 38 37 37 45 49 40 37
77 73 64 60 54 35 38 45 46 42 39 36 32 32 33 32 31 29 31 35 37 35 35 36 33 30 27 26 29 29 27 27 30 34 35 32 37 44 50 54 54 51 46 39
55 42 32 36 34 29 25 22 23 25 28 28 29 32 33 36 40 37 34 36 36 32 25 22 26 31 34 34 38 40 40 38 38 39 42 41 44 52 56 62 65 60 50 47
41 34 32 34 29 30 32 33 32 30 28 27 28 29 33 36 34 35 40 45 43 35 20 32 36 42 42 43 54 54 51 53 53 52 53 55 58 62 65 66 62 50 47 51
62 54 52 40 37 45 52 47 41 43 38 35 38 40 36 30 33 40 45 44 36 36 39 44 48 49 52 57 59 61 61 63 67 65 65 69 68 66 68 68 66 54 53 62
64 67 67 67 59 52 56 46 46 46 40 44 48 45 44 45 46 48 49 49 35 37 46 50 52 55 61 67 70 67 70 73 80 83 76 74 77 76 76 76 65 54 54 60
36 37 36 39 45 48 48 48 48 49 48 47 44 46 52 50 45 47 46 50 43 44 48 51 53 60 75 77 79 77 79 82 85 86 86 89 90 90 90 84 62 57 56 75
33 35 39 41 41 45 52 52 51 54 53 51 49 49 54 50 49 54 45 37 50 54 59 57 56 63 76 88 93 93 89 85 83 84 90 100 100 98 98 80 59 57 55 57
38 37 37 41 50 56 55 45 50 51 53 51 50 49 51 48 42 44 46 52 53 58 63 63 64 70 79 88 92 89 85 82 82 88 99 100 100 98 93 69 60 59 63 72
38 41 44 50 57 52 47 42 46 40 42 43 42 44 46 50 59 51 63 65 65 67 68 70 74 77 80 79 78 78 77 76 85 96 100 100 97 97 90 72 68 67 67 65
42 40 44 47 45 40 40 43 45 43 47 47 45 49 50 59 68 73 73 77 76 74 77 78 81 80 79 79 78 70 69 75 89 97 100 100 96 91 82 74 75 73 68 62
40 43 42 40 38 38 41 47 52 52 56 58 58 58 65 70 75 79 80 81 84 85 84 86 85 82 81 79 77 74 74 77 86 98 98 97 96 91 80 72 72 70 64 59
Wind_Speed
4 4 3 3 5 7 8 5 7 6 11 7 9 9 23 24 20 15 11 10 10 7 5 6 11 15 19 21 24 27 27 26 24 24 23 22 22 23 23 23 24 25 26 25
3 3 4 6 10 9 13 8 13 13 21 8 13 13 18 23 21 16 16 12 8 5 7 11 15 19 22 26 28 27 25 23 23 23 22 21 21 21 21 21 22 24 25 25
5 2 3 6 7 10 6 6 9 12 15 5 4 11 18 21 17 19 15 11 6 6 11 15 20 24 27 25 22 21 21 21 22 22 22 22 22 22 22 22 22 21 21 21
3 2 2 5 5 5 11 7 14 12 6 3 5 7 8 8 8 11 8 4 7 12 16 19 22 22 21 21 20 20 19 20 20 21 22 22 21 21 21 20 20 20 19 18
2 3 7 7 0 4 5 6 5 13 6 6 4 3 2 5 9 4 4 9 13 16 20 23 23 22 21 19 18 18 18 18 19 20 20 20 20 20 20 20 19 19 19 18
1 2 5 4 2 1 3 5 2 3 3 3 1 3 3 7 1 6 9 13 17 20 22 23 22 20 18 16 16 17 17 17 18 18 18 19 19 20 20 20 20 20 18 17
7 5 7 9 7 1 1 4 2 0 1 3 1 0 1 5 9 12 15 18 21 21 21 20 19 17 16 15 16 17 17 17 18 19 19 18 18 19 19 19 19 18 18 18
5 5 9 4 3 5 3 2 4 2 1 4 9 13 15 15 15 15 18 21 21 21 18 16 16 16 16 17 17 18 18 18 18 19 19 18 18 17 17 18 18 18 18 16
8 6 2 3 5 9 13 11 8 5 4 19 17 20 19 16 15 18 22 20 16 16 16 15 15 17 18 17 19 20 20 19 18 17 16 16 16 16 16 19 21 22 21 19
1 5 13 12 10 13 16 21 11 5 16 21 21 21 19 18 19 21 18 16 16 15 15 17 18 18 19 20 21 22 24 22 19 18 16 14 14 16 17 19 21 22 23 23
6 10 21 13 13 17 17 11 12 23 32 27 23 21 20 20 22 20 16 15 15 18 19 18 19 19 19 20 21 22 24 24 22 21 20 19 18 18 19 19 24 23 22 21
11 13 15 10 16 23 26 27 26 22 21 17 21 16 17 21 17 14 14 15 16 16 18 18 18 19 17 17 19 21 23 23 23 23 22 22 24 25 22 22 23 23 16 18
11 12 18 20 19 17 8 9 10 12 13 13 12 13 10 12 12 12 15 17 18 19 20 21 20 19 18 18 20 22 24 24 23 23 23 24 24 26 29 27 26 27 20 16
18 10 2 7 8 13 12 12 13 14 11 10 12 12 13 14 14 14 17 17 18 20 21 21 22 22 23 23 24 26 27 28 27 26 25 25 26 27 28 30 32 32 27 23
7 11 8 5 4 6 8 9 9 9 9 9 9 11 12 15 18 20 20 22 24 26 26 25 27 29 28 27 27 27 29 30 30 30 30 29 29 28 29 29 31 32 30 28
1 2 6 5 6 7 10 10 11 13 13 15 16 15 18 20 22 25 26 27 28 32 33 32 32 32 30 30 30 30 30 31 32 33 32 31 31 32 32 31 31 32 31 30
8 2 3 4 9 11 13 17 21 24 27 27 26 26 29 29 30 31 32 31 30 32 33 34 36 36 35 33 31 31 31 31 32 34 34 34 33 32 32 31 32 34 34 30
6 6 6 10 14 18 21 23 26 28 28 28 29 30 30 31 32 34 35 34 36 38 41 41 39 36 35 35 33 32 32 33 32 33 33 33 34 33 31 31 33 34 34 31
13 16 17 17 17 20 23 27 29 30 32 33 33 34 34 34 35 37 37 37 38 41 43 39 37 36 36 35 32 32 31 31 32 32 32 33 34 33 32 32 32 33 31 29
24 26 27 27 24 24 29 34 34 35 35 34 34 33 34 36 36 37 36 37 39 39 37 33 33 35 36 35 32 30 31 31 31 32 32 33 34 33 32 30 31 31 29 28
28 30 32 34 38 40 37 39 38 39 37 32 31 34 35 36 36 35 35 35 36 33 32 31 32 35 35 33 31 30 31 31 32 32 32 32 32 32 30 29 29 27 26 26
27 28 31 33 35 37 39 39 38 37 35 35 35 36 36 35 32 31 31 34 35 33 32 32 33 33 31 29 29 30 30 30 30 32 33 32 31 29 27 27 26 25 24 23
31 32 32 33 35 36 35 35 37 37 38 37 37 36 33 31 31 30 34 35 33 32 32 33 33 32 30 28 29 29 29 29 30 32 32 31 30 27 26 26 24 21 21 20
34 34 36 36 36 35 38 38 35 34 33 32 32 31 30 30 33 32 34 33 32 31 32 32 32 30 28 28 27 28 29 29 31 31 30 28 27 24 22 21 20 19 18 17
35 37 37 36 35 34 33 32 32 31 31 31 32 31 31 31 30 35 31 30 31 31 33 32 29 28 27 27 26 26 27 28 28 26 26 26 24 21 20 19 18 18 18 17
36 35 34 32 31 31 33 34 37 37 37 38 38 36 36 35 34 32 32 28 29 31 30 30 28 26 26 25 25 27 28 27 25 24 22 22 20 21 20 19 18 18 18 18
35 34 33 36 37 37 37 36 36 38 36 36 37 37 38 37 34 32 28 28 29 29 28 26 24 22 23 25 26 28 28 27 24 22 21 20 19 19 20 21 21 20 20 20
Wind_Direction
304 286 286 269 226 189 209 187 184 281 217 253 217 219 230 238 243 262 247 235 213 217 252 294 310 314 313 314 317 315 312 310 307 306 306 306 305 302 301 299 297 295 294 292
293 18 225 273 254 225 235 256 262 280 279 176 242 245 258 264 254 246 246 215 208 254 302 316 319 319 317 317 315 314 316 316 314 312 313 314 312 310 309 306 303 300 297 295
247 219 280 272 229 212 199 208 215 232 253 237 264 253 272 275 264 244 214 197 234 293 314 320 320 318 313 313 315 316 316 316 317 316 315 315 313 311 310 309 308 307 306 300
282 355 188 254 191 188 204 224 212 249 234 176 250 257 309 292 231 171 181 251 307 316 316 314 311 307 309 314 315 314 315 316 317 316 317 318 317 316 315 312 313 313 313 309
253 234 305 296 51 157 175 295 233 242 263 269 318 223 231 157 152 150 306 313 314 313 310 311 312 312 312 312 311 312 315 318 321 323 324 325 324 326 324 321 318 315 315 313
107 247 252 264 297 134 163 280 19 177 150 154 88 33 286 167 245 317 309 307 308 309 309 308 306 307 309 311 313 318 322 326 327 327 327 326 326 327 327 327 324 322 319 314
228 263 279 252 230 236 66 277 189 156 113 124 45 178 31 297 302 306 305 306 305 302 304 305 304 304 307 313 318 321 323 326 326 326 326 326 326 326 324 323 321 319 317 316
190 217 273 168 108 178 240 274 254 200 95 6 338 320 309 300 291 291 298 302 299 300 302 301 302 301 304 309 311 314 318 322 324 326 327 326 327 328 329 328 326 323 318 314
194 217 268 212 261 278 295 281 259 218 360 331 316 306 297 284 285 296 305 304 300 300 303 305 304 304 305 310 312 314 318 318 319 321 322 322 323 326 329 330 327 320 315 314
5 239 255 279 309 284 281 277 245 236 319 321 313 308 289 287 293 300 302 301 302 302 305 304 303 306 308 312 312 312 313 312 312 313 311 314 319 321 324 329 335 335 318 306
258 286 283 294 339 336 318 261 275 285 304 300 289 282 278 288 296 299 297 298 301 305 308 311 309 308 309 311 311 311 308 310 310 308 306 302 307 312 314 325 330 326 329 326
262 271 309 308 309 304 304 304 297 282 289 290 286 276 283 286 287 291 293 300 301 302 303 306 304 304 307 311 310 310 310 312 311 307 303 301 300 302 300 311 320 330 304 311
293 298 294 304 302 289 293 283 291 285 287 283 286 301 284 277 280 287 295 298 298 301 302 302 301 301 302 305 303 302 303 305 306 308 305 301 299 299 303 310 311 316 315 284
301 325 265 316 321 324 317 313 320 316 303 296 288 283 289 297 291 289 292 298 301 305 305 304 303 302 306 310 304 301 301 299 298 299 299 299 300 299 299 300 304 308 312 306
308 309 294 287 311 356 1 358 355 343 329 319 303 300 302 298 296 299 301 303 303 302 303 303 302 301 307 308 305 302 299 298 299 299 298 297 295 294 294 296 297 297 300 300
129 62 88 76 57 16 350 324 311 310 307 304 302 304 302 298 298 298 298 299 304 303 303 304 302 304 307 307 305 302 300 298 298 298 297 297 297 296 293 293 293 293 295 297
179 193 254 272 307 315 310 306 305 300 295 297 298 301 303 302 301 299 299 300 301 299 300 301 302 307 309 306 304 302 299 296 297 297 298 299 297 295 295 293 290 291 293 296
267 256 268 279 288 293 301 304 305 302 300 301 299 300 301 302 302 302 302 305 303 301 299 302 305 307 306 305 305 302 300 297 296 295 296 296 296 296 295 293 292 293 293 294
250 259 264 267 280 292 300 303 302 299 297 295 295 294 294 294 295 296 300 301 301 299 299 309 310 309 306 304 305 301 298 296 296 295 294 294 294 294 292 291 292 293 291 291
263 268 267 267 270 284 297 302 304 301 296 290 292 291 291 291 293 295 297 295 293 296 304 308 309 308 306 304 305 300 297 295 294 294 295 296 295 294 292 289 290 291 289 287
284 286 286 278 281 278 286 290 297 295 295 292 291 291 292 293 293 295 293 293 298 304 304 304 305 306 305 303 301 297 296 295 295 295 294 292 292 290 287 286 289 287 289 288
296 294 293 293 292 292 291 294 293 293 295 296 295 296 297 296 296 296 294 292 298 301 300 298 301 307 307 304 298 296 295 296 298 298 297 295 293 293 288 287 287 289 291 286
296 296 298 296 294 296 298 294 293 295 297 297 296 295 295 294 295 297 300 306 307 300 299 298 300 306 309 303 297 295 296 297 298 297 294 290 290 289 284 286 290 292 299 299
298 298 299 301 300 299 296 299 300 299 297 297 296 296 296 298 299 298 298 297 301 302 296 296 299 301 302 298 298 298 296 296 298 298 293 290 288 282 277 280 281 286 291 298
301 300 299 299 298 295 298 299 301 302 306 307 305 305 305 303 300 303 304 297 298 301 298 298 298 296 297 298 298 298 300 300 302 300 293 289 286 275 273 275 280 284 286 290
299 295 298 301 301 300 299 301 299 299 299 298 298 305 307 307 305 305 305 300 299 300 298 299 300 298 296 297 299 301 305 306 305 305 299 292 286 276 271 271 276 283 288 290
294 294 297 298 296 297 299 302 298 298 299 299 296 299 304 304 303 304 302 302 303 301 299 299 300 297 295 298 300 301 302 304 303 303 302 297 287 276 272 273 277 283 286 287